Weather History for Homer, AK

Change the Weather History Date:

Tuesday, March 27, 2012

  Actual Average Record
Temperature  
Mean Temperature 31 °F -  
Max Temperature 37 °F 38 °F 49 °F (1934)
Min Temperature 25 °F 27 °F 5 °F (1963)
Degree Days  
Heating Degree Days 34    
Moisture  
Dew Point 29 °F    
Average Humidity 84    
Maximum Humidity 100    
Minimum Humidity 73    
Precipitation  
Precipitation 0.07 in - - ()
Sea Level Pressure  
Sea Level Pressure 29.28 in    
Wind  
Wind Speed 9 mph (ENE)    
Max Wind Speed 16 mph    
Max Gust Speed 26 mph    
Visibility 10 miles    
Events Rain    
Averages and records for this station are not official NWS values.
T = Trace of Precipitation, MM = Missing Value Source: NWS Daily Summary

Daily Weather History Graph

Daily Weather History Graph

Search for Another Location

Airport:

Trip Planner

Search our weather history database for the weather conditions in past years. The results will help you decide how hot, cold, wet, or windy it might be!

Date:

Astronomy

Mar. 27, 2012 Rise Set
Actual Time 7:44 AM AKDT 8:39 PM AKDT
Civil Twilight 7:02 AM AKDT 9:21 PM AKDT
Nautical Twilight 6:11 AM AKDT 10:12 PM AKDT
Astronomical Twilight 5:13 AM AKDT 11:10 PM AKDT
Moon 9:03 AM AKDT (3/27) 2:13 AM AKDT (3/27)
Length of Visible Light 14h 18m
Length of Day
12h 54m
Waxing Crescent, 23% of the Moon is Illuminated
Mar 27
Waxing Crescent
Mar 30
First Quarter
Apr 6
Full
Apr 13
Last Quarter
Apr 20
New

Hourly Weather History & Observations

Time (AKDT) Temp. Windchill Dew Point Humidity Pressure Visibility Wind Dir Wind Speed Gust Speed Precip Events Conditions
12:53 AM 27.0 °F - 23.0 °F 85% 29.50 in 10.0 mi Calm Calm - N/A   Clear
1:53 AM 28.0 °F 24.2 °F 23.0 °F 81% 29.49 in 10.0 mi ENE 3.5 mph - N/A   Scattered Clouds
2:53 AM 25.0 °F 14.2 °F 21.9 °F 88% 29.47 in 10.0 mi ESE 11.5 mph 26.5 mph N/A   Scattered Clouds
3:53 AM 32.0 °F 24.8 °F 25.0 °F 75% 29.44 in 10.0 mi NE 8.1 mph - N/A   Overcast
4:53 AM 30.9 °F 20.7 °F 26.1 °F 82% 29.41 in 10.0 mi ENE 13.8 mph - N/A   Mostly Cloudy
5:53 AM 30.9 °F 21.7 °F 25.0 °F 79% 29.38 in 10.0 mi NE 11.5 mph - N/A   Mostly Cloudy
6:53 AM 32.0 °F 21.6 °F 26.1 °F 79% 29.36 in 10.0 mi ENE 15.0 mph - N/A   Overcast
7:53 AM 32.0 °F 22.1 °F 26.1 °F 79% 29.36 in 10.0 mi ENE 13.8 mph - N/A   Overcast
8:53 AM 33.1 °F 25.5 °F 28.0 °F 82% 29.35 in 10.0 mi ENE 9.2 mph - N/A   Overcast
9:53 AM 35.1 °F 27.9 °F 28.9 °F 78% 29.33 in 10.0 mi ENE 9.2 mph - N/A   Overcast
10:53 AM 36.0 °F 27.1 °F 28.9 °F 76% 29.32 in 10.0 mi ENE 13.8 mph - N/A   Overcast
11:53 AM 37.0 °F 28.5 °F 28.9 °F 73% 29.30 in 10.0 mi ENE 13.8 mph - N/A   Overcast
12:53 PM 37.9 °F 29.2 °F 30.0 °F 73% 29.29 in 10.0 mi East 15.0 mph - N/A   Overcast
1:53 PM 37.0 °F 28.5 °F 30.0 °F 76% 29.26 in 10.0 mi East 13.8 mph - N/A   Overcast
2:53 PM 37.0 °F 28.9 °F 30.9 °F 79% 29.24 in 10.0 mi East 12.7 mph - N/A   Overcast
3:53 PM 37.0 °F 31.0 °F 32.0 °F 82% 29.23 in 10.0 mi East 8.1 mph - 0.00 in   Overcast
4:53 PM 36.0 °F 27.1 °F 32.0 °F 86% 29.21 in 10.0 mi East 13.8 mph - 0.00 in   Overcast
5:53 PM 35.1 °F 25.2 °F 32.0 °F 89% 29.19 in 9.0 mi East 16.1 mph 21.9 mph 0.00 in   Overcast
6:53 PM 35.1 °F 27.4 °F 32.0 °F 89% 29.17 in 10.0 mi East 10.4 mph - 0.00 in Rain Light Rain
7:53 PM 34.0 °F 26.0 °F 32.0 °F 92% 29.17 in 6.0 mi ENE 10.4 mph - 0.03 in   Overcast
8:53 PM 34.0 °F 25.5 °F 32.0 °F 92% 29.17 in 7.0 mi East 11.5 mph - 0.01 in   Overcast
9:53 PM 34.0 °F 29.8 °F 33.1 °F 96% 29.16 in 10.0 mi NE 4.6 mph - 0.02 in   Overcast
10:45 PM 33.8 °F 27.7 °F 33.8 °F 100% 29.15 in 10.0 mi NE 6.9 mph - N/A   Overcast
10:53 PM 34.0 °F 29.8 °F 33.1 °F 96% 29.15 in 10.0 mi Variable 4.6 mph - N/A   Overcast
11:01 PM 33.8 °F 27.0 °F 32.0 °F 93% 29.15 in 10.0 mi East 8.1 mph - N/A   Overcast
11:24 PM 35.6 °F 31.7 °F 32.0 °F 87% 29.15 in 9.0 mi East 4.6 mph - N/A   Overcast
11:53 PM 35.1 °F 30.1 °F 33.1 °F 92% 29.16 in 10.0 mi ENE 5.8 mph - 0.01 in   Overcast